Flag for Germany Weather past 2 weeks in Mayen, Rhineland-Palatinate, Germany

Now
50 °F

Fog.


Feels Like: 46 °F
Forecast: 38 / 51 °F
Wind: 12 mph from West

Location: Buechel

Current Time: Dec 18, 2014 at 3:57:51 PM

Latest Report: Dec 18, 2014 at 3:20 PM


Visibility: 3 mi

Pressure: 29.92 "Hg

Humidity: 94%

Dew point: 48 °F

Location of MayenLocation

Historic Weather in Mayen — Graph

°F

Mayen temperature yesterday

Maximum temperature yesterday: 45 °F (at 11:20 PM)
Minimum temperature yesterday: 32 °F (at 2:20 AM)
Average temperature yesterday: 37 °F

Past Weeks' High & Low Weather Summary

 TemperatureHumidityPressure
High50 °F (Dec 18, 12:20 PM)100% (Dec 3, 2:20 PM)30.33 "Hg (Dec 3, 2:20 PM)
Low28 °F (Dec 3, 7:20 PM)81% (Dec 14, 12:20 PM)29.50 "Hg (Dec 12, 3:20 PM)
Average35 °F96%29.96 "Hg
* Reported Dec 3 2:20 PM — Dec 18 2:20 PM, Mayen, Weather by CustomWeather, © 2014

Note: Actual official high and low records may vary slightly from our data, if they occured in-between our weather recording intervals... More about our weather records

Advertising

Mayen weather history for previous 24 hours

 ConditionsComfort  
Time TempWeatherWind HumidityBarometerVisibility
2:20 PM
Dec 18
50 °FFog.13 mph94%29.92 "Hg3 mi
1:20 PM50 °FFog.14 mph94%29.89 "Hg3 mi
12:20 PM50 °FPartly sunny.13 mph94%29.89 "HgN/A
11:20 AM48 °FDrizzle. Fog.10 mph100%29.92 "Hg1 mi
10:20 AM48 °FDrizzle. Fog.12 mph94%29.89 "Hg1 mi
9:46 AM48 °FDrizzle. Fog.12 mph94%29.89 "Hg1 mi
9:20 AM46 °FFog.13 mph100%29.89 "Hg1 mi
8:20 AM46 °FDrizzle. Fog.12 mph100%29.89 "Hg1 mi
7:20 AM46 °FDrizzle. Fog.14 mph100%29.86 "Hg1 mi
6:20 AM46 °FDrizzle. Fog.14 mph100%29.86 "Hg1 mi
5:20 AM46 °FFog.13 mph93%29.86 "Hg1 mi
4:20 AM46 °FCool.12 mph93%29.86 "Hg0 mi
3:20 AM45 °FQuite cool.12 mph100%29.89 "Hg0 mi
2:20 AM45 °FQuite cool.9 mph100%29.89 "Hg0 mi
1:20 AM45 °FQuite cool.9 mph100%29.89 "Hg0 mi
12:20 AM45 °FQuite cool.9 mph93%29.86 "Hg0 mi
11:20 PM
Dec 17
45 °FQuite cool.9 mph93%29.86 "Hg1 mi
10:20 PM43 °FQuite cool.12 mph100%29.83 "Hg0 mi
9:20 PM43 °FQuite cool.8 mph93%29.83 "Hg0 mi
8:20 PM43 °FQuite cool.9 mph93%29.80 "Hg0 mi
7:20 PM41 °FQuite cool.8 mph100%29.77 "Hg0 mi
6:20 PM41 °FQuite cool.9 mph93%29.74 "Hg0 mi
5:20 PM39 °FChilly.12 mph100%29.71 "Hg1 mi
4:20 PM39 °FChilly.13 mph100%29.71 "Hg1 mi
3:20 PM39 °FChilly.14 mph93%29.68 "Hg1 mi
Weather by CustomWeather, © 2014

See weather overviewHow to use our weather pages